EAG5501 HTZA-HAAB

Flight info

Callsign EAG5501
Flight time N/A
Altitude 35000
Route UVUKO UL431 MOV UN301 ALEMU/N0467F360 UT129 IMKIT IMKIT2B
Aircraft B38M/M-SDE1FGHILORVWXY/HB1

Departure

Time 2026-04-28 16:38
Airport Abeid Amani Karume International Airport (HTZA)

Arrival

Time N/A
Airport Addis Ababa Bole International Airport (HAAB)
Time Latitude Longitude Altitude Speed Heading
2026-04-28 16:29 -6.21862 39.22209 54 ft 0 kts 265°
2026-04-28 16:32 -6.21863 39.22247 56 ft 4 kts 281°
2026-04-28 16:32 -6.21871 39.22272 53 ft 4 kts 304°
2026-04-28 16:33 -6.21889 39.22288 53 ft 3 kts 350°
2026-04-28 16:33 -6.21895 39.22289 55 ft 1 kts 354°
2026-04-28 16:33 -6.21897 39.22289 55 ft 0 kts 354°
2026-04-28 16:35 -6.21896 39.22289 55 ft 1 kts 354°
2026-04-28 16:36 -6.21819 39.22282 61 ft 21 kts 356°
2026-04-28 16:36 -6.21755 39.22302 54 ft 9 kts 25°
2026-04-28 16:36 -6.21664 39.22314 61 ft 18 kts 356°
2026-04-28 16:36 -6.21522 39.22303 58 ft 20 kts 18°
2026-04-28 16:37 -6.21502 39.22399 62 ft 14 kts 121°
2026-04-28 16:37 -6.21593 39.22430 61 ft 19 kts 174°
2026-04-28 16:37 -6.21958 39.22467 61 ft 90 kts 174°
2026-04-28 16:38 -6.23961 39.22654 513 ft 174 kts 173°
2026-04-28 16:38 -6.25207 39.22762 1240 ft 181 kts 172°
2026-04-28 16:38 -6.26407 39.23224 1804 ft 196 kts 138°
2026-04-28 16:38 -6.27064 39.24539 1985 ft 234 kts 97°
2026-04-28 16:39 -6.26670 39.26201 2369 ft 262 kts 59°
2026-04-28 16:39 -6.25283 39.27397 3031 ft 275 kts 24°
2026-04-28 16:39 -6.23391 39.27633 3816 ft 280 kts 349°
2026-04-28 16:39 -6.21617 39.26848 4585 ft 282 kts 323°
2026-04-28 16:40 -6.20078 39.25601 5338 ft 285 kts 318°
2026-04-28 16:40 -6.18539 39.24339 6126 ft 288 kts 328°
2026-04-28 16:40 -6.16639 39.23751 6864 ft 289 kts 356°
2026-04-28 16:40 -6.14627 39.23874 7609 ft 292 kts 10°
2026-04-28 16:41 -6.12638 39.24326 8336 ft 294 kts 15°
2026-04-28 16:41 -6.10653 39.24885 9072 ft 298 kts 15°
2026-04-28 16:41 -6.08637 39.25439 9804 ft 301 kts 14°
2026-04-28 16:41 -6.06579 39.25945 10329 ft 311 kts 12°
2026-04-28 16:42 -6.04418 39.26412 10593 ft 329 kts 11°
2026-04-28 16:42 -6.02105 39.26858 10834 ft 347 kts 10°
2026-04-28 16:42 -5.99663 39.27296 11073 ft 363 kts
2026-04-28 16:42 -5.97119 39.27737 11300 ft 378 kts
2026-04-28 16:43 -5.94488 39.28189 11686 ft 387 kts
2026-04-28 16:43 -5.91817 39.28652 12165 ft 392 kts
2026-04-28 16:43 -5.89112 39.29124 12719 ft 395 kts
2026-04-28 16:43 -5.86435 39.29594 13304 ft 396 kts
2026-04-28 16:44 -5.83698 39.30077 13830 ft 400 kts
2026-04-28 16:44 -5.80951 39.30563 14315 ft 402 kts
2026-04-28 16:44 -5.78173 39.31054 14771 ft 406 kts
2026-04-28 16:44 -5.75377 39.31548 15248 ft 408 kts
2026-04-28 16:45 -5.72595 39.32040 15700 ft 412 kts 10°
2026-04-28 16:45 -5.69759 39.32541 16184 ft 415 kts 10°
2026-04-28 16:45 -5.66899 39.33046 16658 ft 418 kts 10°
2026-04-28 16:45 -5.64012 39.33556 17112 ft 422 kts 10°
2026-04-28 16:46 -5.61107 39.34069 17615 ft 424 kts 10°
2026-04-28 16:46 -5.58169 39.34588 18075 ft 428 kts 10°
2026-04-28 16:46 -5.55227 39.35108 18536 ft 430 kts 10°
2026-04-28 16:46 -5.52303 39.35624 18905 ft 434 kts 10°
2026-04-28 16:47 -5.49312 39.36151 19339 ft 437 kts 10°
2026-04-28 16:47 -5.46300 39.36683 19723 ft 441 kts 10°
2026-04-28 16:47 -5.43268 39.37218 20153 ft 443 kts 10°
2026-04-28 16:47 -5.40224 39.37755 20532 ft 446 kts 10°
2026-04-28 16:48 -5.37183 39.38291 20925 ft 449 kts 10°
2026-04-28 16:48 -5.34102 39.38835 21317 ft 452 kts 10°
2026-04-28 16:48 -5.30978 39.39386 21686 ft 455 kts 10°
2026-04-28 16:48 -5.27847 39.39938 22069 ft 457 kts 10°
2026-04-28 16:49 -5.24718 39.40489 22392 ft 461 kts 10°
2026-04-28 16:49 -5.21548 39.41048 22817 ft 463 kts 10°
2026-04-28 16:49 -5.18362 39.41610 23129 ft 467 kts 10°
2026-04-28 16:49 -5.15157 39.42175 23520 ft 468 kts 10°
2026-04-28 16:50 -5.11928 39.42745 23757 ft 472 kts 10°
2026-04-28 16:50 -5.08676 39.43318 24082 ft 474 kts 10°
2026-04-28 16:50 -5.05409 39.43894 24330 ft 478 kts 11°
2026-04-28 16:50 -5.02172 39.44464 24676 ft 478 kts 11°
2026-04-28 16:51 -4.98880 39.45045 24928 ft 482 kts 10°
2026-04-28 16:51 -4.95566 39.45628 25267 ft 483 kts 10°
2026-04-28 16:51 -4.92241 39.46214 25509 ft 486 kts 11°
2026-04-28 16:51 -4.88890 39.46804 25853 ft 487 kts 11°
2026-04-28 16:52 -4.85535 39.47395 26109 ft 490 kts 11°
2026-04-28 16:52 -4.82173 39.47987 26450 ft 491 kts 11°
2026-04-28 16:52 -4.78838 39.48574 26704 ft 494 kts 11°
2026-04-28 16:52 -4.75446 39.49171 27020 ft 495 kts 11°
2026-04-28 16:53 -4.72033 39.49772 27273 ft 498 kts 11°
2026-04-28 16:53 -4.68613 39.50377 27604 ft 499 kts 11°
2026-04-28 16:53 -4.65188 39.51006 27914 ft 500 kts 11°
2026-04-28 16:53 -4.61758 39.51654 28185 ft 503 kts 11°
2026-04-28 16:54 -4.58308 39.52313 28439 ft 505 kts 12°
2026-04-28 16:54 -4.54845 39.52975 28699 ft 507 kts 12°
2026-04-28 16:54 -4.51369 39.53636 28961 ft 509 kts 12°
2026-04-28 16:54 -4.49062 39.54073 29181 ft 509 kts 12°
2026-04-28 16:55 -4.44443 39.54945 29674 ft 508 kts 12°
2026-04-28 16:55 -4.40970 39.55599 30012 ft 508 kts 12°
2026-04-28 16:55 -4.37494 39.56253 30268 ft 508 kts 12°
2026-04-28 16:55 -4.34012 39.56908 30552 ft 508 kts 12°
2026-04-28 16:56 -4.30538 39.57561 30860 ft 507 kts 12°
2026-04-28 16:56 -4.27070 39.58213 31159 ft 506 kts 12°
2026-04-28 16:56 -4.23599 39.58866 31486 ft 505 kts 12°
2026-04-28 16:56 -4.20150 39.59515 31796 ft 504 kts 12°
2026-04-28 16:57 -4.16750 39.60154 32074 ft 503 kts 12°
2026-04-28 16:57 -4.13299 39.60803 32351 ft 503 kts 12°
2026-04-28 16:57 -4.09859 39.61450 32641 ft 501 kts 12°
2026-04-28 16:57 -4.06434 39.62094 33018 ft 498 kts 11°
2026-04-28 16:58 -4.03021 39.62736 33311 ft 497 kts 12°
2026-04-28 16:58 -3.99657 39.63368 33547 ft 497 kts 11°
2026-04-28 16:58 -3.96241 39.63997 33807 ft 497 kts
2026-04-28 16:58 -3.92807 39.64391 34025 ft 497 kts
2026-04-28 16:59 -3.89357 39.64699 34257 ft 497 kts
2026-04-28 16:59 -3.85909 39.64974 34462 ft 496 kts
2026-04-28 16:59 -3.82467 39.65232 34688 ft 495 kts
2026-04-28 16:59 -3.79062 39.65480 34907 ft 494 kts
2026-04-28 17:00 -3.75629 39.65730 35123 ft 493 kts
2026-04-28 17:00 -3.72203 39.65982 35325 ft 493 kts
2026-04-28 17:00 -3.68774 39.66237 35511 ft 493 kts
2026-04-28 17:00 -3.65351 39.66492 35727 ft 492 kts
2026-04-28 17:01 -3.61927 39.66749 35883 ft 492 kts
2026-04-28 17:01 -3.58560 39.67002 36098 ft 491 kts
2026-04-28 17:01 -3.55155 39.67258 36256 ft 491 kts
2026-04-28 17:01 -3.51748 39.67515 36477 ft 490 kts
2026-04-28 17:02 -3.48351 39.67770 36653 ft 489 kts
2026-04-28 17:02 -3.46106 39.67939 36788 ft 488 kts
2026-04-28 17:02 -3.41558 39.68282 36862 ft 491 kts
2026-04-28 17:03 -3.31404 39.69045 36862 ft 487 kts
2026-04-28 17:03 -3.24635 39.69554 36860 ft 487 kts
2026-04-28 17:04 -3.14479 39.70317 36855 ft 488 kts
2026-04-28 17:05 -3.04363 39.71077 36856 ft 488 kts
2026-04-28 17:06 -2.94192 39.71841 36857 ft 488 kts
2026-04-28 17:06 -2.84089 39.72599 36856 ft 486 kts
2026-04-28 17:07 -2.77327 39.73107 36856 ft 486 kts
2026-04-28 17:07 -2.70579 39.73614 36855 ft 486 kts
2026-04-28 17:08 -2.63860 39.74118 36858 ft 486 kts
2026-04-28 17:08 -2.57101 39.74610 36856 ft 486 kts
2026-04-28 17:09 -2.50332 39.75077 36855 ft 486 kts
2026-04-28 17:09 -2.43600 39.75541 36855 ft 486 kts
2026-04-28 17:10 -2.36838 39.76009 36856 ft 486 kts
2026-04-28 17:10 -2.30072 39.76481 36852 ft 487 kts
2026-04-28 17:11 -2.23326 39.76951 36852 ft 489 kts
2026-04-28 17:11 -2.16541 39.77423 36849 ft 489 kts
2026-04-28 17:12 -2.09737 39.77897 36848 ft 489 kts
2026-04-28 17:12 -2.02992 39.78366 36850 ft 489 kts
2026-04-28 17:13 -1.96191 39.78840 36846 ft 489 kts
2026-04-28 17:13 -1.89397 39.79313 36846 ft 489 kts
2026-04-28 17:14 -1.82646 39.79783 36845 ft 489 kts
2026-04-28 17:14 -1.75837 39.80255 36840 ft 489 kts
2026-04-28 17:15 -1.69045 39.80702 36846 ft 487 kts
2026-04-28 17:15 -1.62322 39.81136 36845 ft 486 kts
2026-04-28 17:16 -1.55555 39.81577 36843 ft 486 kts
2026-04-28 17:16 -1.48822 39.82018 36845 ft 486 kts
2026-04-28 17:17 -1.42070 39.82461 36846 ft 486 kts
2026-04-28 17:17 -1.35328 39.82903 36846 ft 485 kts
2026-04-28 17:18 -1.28586 39.83346 36847 ft 485 kts
2026-04-28 17:18 -1.21888 39.83785 36847 ft 485 kts
2026-04-28 17:19 -1.16239 39.84155 36846 ft 485 kts
2026-04-28 17:19 -1.09532 39.84595 36849 ft 486 kts
2026-04-28 17:20 -1.02765 39.85039 36846 ft 487 kts
2026-04-28 17:20 -0.96032 39.85480 36845 ft 487 kts
2026-04-28 17:21 -0.89277 39.85923 36842 ft 487 kts
2026-04-28 17:22 -0.79155 39.86586 36841 ft 482 kts
2026-04-28 17:22 -0.72455 39.87025 36839 ft 482 kts
2026-04-28 17:23 -0.62449 39.87682 36845 ft 482 kts
2026-04-28 17:23 -0.55754 39.88121 36846 ft 481 kts
2026-04-28 17:24 -0.49132 39.88555 36847 ft 478 kts
2026-04-28 17:24 -0.42490 39.88990 36845 ft 477 kts
2026-04-28 17:25 -0.32525 39.89643 36838 ft 477 kts
2026-04-28 17:26 -0.25943 39.90158 36836 ft 477 kts
2026-04-28 17:26 -0.19328 39.90781 36829 ft 477 kts
2026-04-28 17:27 -0.12700 39.91401 36829 ft 477 kts
2026-04-28 17:27 -0.06073 39.92003 36829 ft 477 kts
2026-04-28 17:28 0.00506 39.92591 36835 ft 477 kts
2026-04-28 17:28 0.10406 39.93475 36830 ft 474 kts
2026-04-28 17:29 0.16938 39.94059 36827 ft 474 kts
2026-04-28 17:30 0.26824 39.94943 36825 ft 474 kts
2026-04-28 17:30 0.36655 39.95823 36829 ft 473 kts
2026-04-28 17:31 0.46501 39.96703 36827 ft 473 kts
2026-04-28 17:32 0.56314 39.97581 36826 ft 473 kts
2026-04-28 17:32 0.62878 39.98169 36826 ft 473 kts
2026-04-28 17:33 0.69442 39.98756 36826 ft 473 kts
2026-04-28 17:33 0.74894 39.99243 36827 ft 473 kts
2026-04-28 17:34 0.82518 39.99926 36825 ft 473 kts
2026-04-28 17:34 0.89082 40.00513 36823 ft 473 kts
2026-04-28 17:35 0.95599 40.01097 36822 ft 472 kts
2026-04-28 17:35 1.02166 40.01687 36822 ft 472 kts
2026-04-28 17:36 1.08679 40.02276 36822 ft 472 kts
2026-04-28 17:36 1.15243 40.02869 36823 ft 472 kts